Willimantic, CT

8:22 PM EST on November 20, 2019 (GMT -0500)
Windham

Weather History for KIJD - October, 2019

Change the Weather History Date:

Wednesday, October 23, 2019

  Actual Average Record
Temperature  
Mean Temperature 52 °F -  
Max Temperature 66 °F 62 °F 86 °F (1979)
Min Temperature 39 °F 33 °F 19 °F (1997)
Degree Days  
Heating Degree Days 12    
Growing Degree Days 2 (Base 50)    
Moisture  
Dew Point 49 °F    
Average Humidity 81    
Maximum Humidity 100    
Minimum Humidity 37    
Precipitation  
Precipitation 0.40 in - - ()
Sea Level Pressure  
Sea Level Pressure 29.87 in    
Wind  
Wind Speed 4 mph ()    
Max Wind Speed 20 mph    
Max Gust Speed 26 mph    
Visibility 7.8 miles    
Events Rain    
Averages and records for this station are not official NWS values.
T = Trace of Precipitation, MM = Missing Value Source: Averaged Metar Reports

Daily Weather History Graph

Daily Weather History Graph

Search for Another Location

Airport or City:

Astronomy

Oct. 23, 2019 Rise Set
Actual Time 7:09 AM EDT 5:55 PM EDT
Civil Twilight 6:41 AM EDT 6:23 PM EDT
Nautical Twilight 6:08 AM EDT 6:56 PM EDT
Astronomical Twilight 5:36 AM EDT 7:28 PM EDT
Moon 1:18 AM EDT (10/23) 3:50 PM EDT (10/23)
Length of Visible Light 11h 42m
Length of Day
10h 45m
Waning Crescent, 27% of the Moon is Illuminated
Oct 23
Waning Crescent
Oct 27
New
Nov 4
First Quarter
Nov 12
Full
Nov 19
Last Quarter

Hourly Weather History & Observations

Time (EDT) Temp. Dew Point Humidity Pressure Visibility Wind Dir Wind Speed Gust Speed Precip Events Conditions
12:52 AM 55.9 °F 55.9 °F 100% 29.84 in 2.5 mi Calm Calm - 0.14 in Rain Heavy Rain
1:13 AM 55.9 °F 55.0 °F 97% 29.84 in 5.0 mi Calm Calm - 0.06 in Rain Light Rain
1:52 AM 55.9 °F 55.9 °F 100% 29.81 in 10.0 mi NNE 3.5 mph - 0.07 in   Overcast
2:52 AM 55.9 °F 55.9 °F 100% 29.78 in 5.0 mi Calm Calm - 0.02 in Rain Light Rain
3:32 AM 57.0 °F 57.0 °F 100% 29.76 in 3.0 mi Calm Calm - 0.00 in Rain Light Rain
3:52 AM 57.0 °F 57.0 °F 100% 29.76 in 3.0 mi Calm Calm - 0.00 in Rain Light Rain
4:08 AM 57.0 °F 57.0 °F 100% 29.75 in 2.5 mi Calm Calm - 0.01 in Rain Light Rain
4:29 AM 57.0 °F 57.0 °F 100% 29.74 in 3.0 mi Calm Calm - 0.02 in Rain Light Rain
4:52 AM 57.0 °F 57.0 °F 100% 29.74 in 2.0 mi Calm Calm - 0.04 in Rain Light Rain
5:16 AM 57.9 °F 57.0 °F 97% 29.76 in 1.8 mi WNW 8.1 mph - 0.09 in Rain Heavy Rain
5:25 AM 57.0 °F 57.0 °F 100% 29.77 in 3.0 mi Variable 6.9 mph - 0.12 in Rain Rain
5:32 AM 57.0 °F 55.9 °F 96% 29.77 in 7.0 mi NNW 9.2 mph - 0.12 in Rain Light Rain
5:52 AM 57.0 °F 55.0 °F 93% 29.78 in 10.0 mi NNW 8.1 mph 19.6 mph 0.12 in Rain Light Rain
6:39 AM 55.9 °F 54.0 °F 93% 29.77 in 10.0 mi NNW 10.4 mph 16.1 mph 0.01 in Rain Light Rain
6:52 AM 55.9 °F 54.0 °F 93% 29.78 in 10.0 mi NNW 12.7 mph 19.6 mph 0.01 in   Overcast
7:05 AM 55.9 °F 53.1 °F 90% 29.78 in 10.0 mi North 6.9 mph - N/A   Overcast
7:52 AM 55.0 °F 52.0 °F 89% 29.79 in 10.0 mi North 4.6 mph - N/A   Mostly Cloudy
8:52 AM 57.0 °F 53.1 °F 87% 29.82 in 10.0 mi NW 4.6 mph - N/A   Partly Cloudy
9:52 AM 60.1 °F 52.0 °F 75% 29.84 in 10.0 mi NNW 8.1 mph - N/A   Clear
10:52 AM 62.1 °F 50.0 °F 65% 29.88 in 10.0 mi WNW 9.2 mph - N/A   Clear
11:52 AM 63.0 °F 46.0 °F 54% 29.87 in 10.0 mi WNW 12.7 mph 26.5 mph N/A   Clear
12:52 PM 64.9 °F 44.1 °F 47% 29.87 in 10.0 mi NW 8.1 mph 20.7 mph N/A   Scattered Clouds
1:52 PM 64.9 °F 41.0 °F 42% 29.89 in 10.0 mi WNW 13.8 mph 19.6 mph N/A   Partly Cloudy
2:52 PM 64.9 °F 37.9 °F 37% 29.89 in 10.0 mi West 19.6 mph 24.2 mph N/A   Scattered Clouds
3:52 PM 63.0 °F 37.0 °F 38% 29.93 in 10.0 mi NW 10.4 mph 21.9 mph N/A   Clear
4:52 PM 64.0 °F 37.9 °F 38% 29.93 in 10.0 mi Variable 5.8 mph - N/A   Clear
5:52 PM 61.0 °F 37.0 °F 41% 29.97 in 10.0 mi WNW 3.5 mph - N/A   Clear
6:52 PM 53.1 °F 41.0 °F 64% 30.01 in 10.0 mi SW 4.6 mph - N/A   Clear
7:52 PM 48.0 °F 42.1 °F 80% 30.04 in 10.0 mi ENE 3.5 mph - N/A   Clear
8:52 PM 46.0 °F 41.0 °F 83% 30.08 in 10.0 mi Calm Calm - N/A   Clear
9:52 PM 44.1 °F 41.0 °F 89% 30.11 in 10.0 mi Calm Calm - N/A   Clear
10:52 PM 41.0 °F 39.9 °F 96% 30.13 in 10.0 mi Calm Calm - N/A   Clear
11:52 PM 39.0 °F 37.9 °F 96% 30.14 in 10.0 mi Calm Calm - N/A   Clear